Flag for Indonesia Weather past 2 weeks in Manado, North Sulawesi, Indonesia

Now
91 °F

Passing clouds.


Feels Like: 94 °F
Forecast: 77 / 90 °F
Wind: 14 mph from South

Location: Menado / Dr. Sam Ratulangi

Current Time: Jul 31, 2014 at 2:12:32 PM

Latest Report: Jul 31, 2014 at 1:30 PM


Visibility: N/A

Pressure: 29.77 "Hg

Humidity: 44%

Dew point: 66 °F

Location of ManadoLocation

Historic Weather in Manado — Graph

°F

Manado temperature yesterday

Maximum temperature yesterday: 91 °F (at 2:30 PM)
Minimum temperature yesterday: 81 °F (at 5:00 AM)
Average temperature yesterday: 86 °F

Past Weeks' High & Low Weather Summary

 TemperatureHumidityPressure
High91 °F (Jul 18, 12:00 PM)100% (Jul 17, 5:30 AM)29.92 "Hg (Jul 17, 5:30 AM)
Low70 °F (Jul 24, 2:00 AM)36% (Jul 23, 11:30 AM)29.71 "Hg (Jul 21, 2:30 PM)
Average84 °F65%29.83 "Hg
* Reported Jul 16 5:00 PM — Jul 31 12:30 PM, Manado, Weather by CustomWeather, © 2014

Note: Actual official high and low records may vary slightly from our data, if they occured in-between our weather recording intervals... More about our weather records

Advertising

Manado weather history for previous 24 hours

 ConditionsComfort  
Time TempWeatherWind HumidityBarometerVisibility
12:30 PM
Jul 31
91 °FPassing clouds.15 mph41%29.80 "HgN/A
12:00 PM91 °FPassing clouds.15 mph41%29.80 "HgN/A
11:30 AM90 °FPassing clouds.21 mph46%29.80 "HgN/A
11:00 AM90 °FPassing clouds.16 mph46%29.83 "HgN/A
10:30 AM90 °FPassing clouds.18 mph46%29.83 "HgN/A
10:00 AM90 °FPassing clouds.21 mph46%29.83 "HgN/A
9:30 AM88 °FScattered clouds.20 mph46%29.86 "HgN/A
9:00 AM86 °FScattered clouds.17 mph49%29.86 "HgN/A
8:30 AM86 °FScattered clouds.13 mph49%29.86 "HgN/A
8:00 AM81 °FScattered clouds.7 mph70%29.86 "HgN/A
7:30 AM81 °FScattered clouds.5 mph66%29.86 "HgN/A
7:00 AM75 °FScattered clouds.2 mph78%29.86 "HgN/A
9:30 PM
Jul 30
82 °FPassing clouds.9 mph55%29.86 "HgN/A
9:00 PM82 °FPassing clouds.12 mph55%29.86 "HgN/A
8:30 PM82 °FPassing clouds.14 mph55%29.86 "HgN/A
8:00 PM82 °FPassing clouds.10 mph58%29.86 "HgN/A
7:30 PM82 °FPassing clouds.13 mph62%29.83 "HgN/A
7:00 PM82 °FPassing clouds.15 mph62%29.83 "HgN/A
6:30 PM82 °FPassing clouds.14 mph62%29.83 "HgN/A
6:00 PM84 °FPassing clouds.14 mph58%29.80 "HgN/A
5:30 PM84 °FPassing clouds.16 mph58%29.80 "HgN/A
5:00 PM88 °FPassing clouds.15 mph52%29.77 "HgN/A
4:30 PM88 °FPassing clouds.14 mph52%29.77 "HgN/A
4:00 PM90 °FPassing clouds.16 mph49%29.77 "HgN/A
3:30 PM90 °FPassing clouds.16 mph52%29.77 "HgN/A
3:00 PM90 °FPassing clouds.17 mph52%29.77 "HgN/A
2:30 PM91 °FPassing clouds.14 mph49%29.77 "HgN/A
2:00 PM90 °FPassing clouds.17 mph55%29.77 "HgN/A
Weather by CustomWeather, © 2014

See weather overviewHow to use our weather pages